Theta_e
335 335 335 334 334 334 333 332 331 331 330 330 329 330 330 331 332 331 332 332 332 332 332 332 334 334 334 333 332 332 331 330 330 330 330 330 330 330 329 329 329 329
335 335 335 335 334 333 333 333 332 331 331 330 330 330 331 331 331 331 331 331 332 332 332 332 333 334 334 333 332 331 331 330 330 331 330 330 330 330 330 330 329 329
334 334 334 333 333 332 332 332 332 332 331 330 330 330 330 331 330 331 331 331 331 332 332 332 333 334 334 333 332 332 331 331 331 331 330 330 331 331 332 331 330 330
334 334 333 333 333 332 332 331 331 331 331 329 329 330 331 331 331 330 330 332 331 331 332 332 332 333 334 334 333 332 332 332 332 331 330 331 331 331 331 331 331 330
335 334 334 334 333 333 332 331 330 330 330 330 329 329 330 330 330 330 330 330 331 331 331 331 332 333 333 334 333 332 332 331 331 331 330 330 331 330 331 331 330 329
335 335 335 334 333 333 332 331 331 331 330 330 329 329 329 330 330 330 330 330 330 331 330 331 331 332 333 334 334 333 332 332 331 331 330 330 331 331 331 330 330 329
333 333 334 334 333 333 332 331 331 331 331 331 330 328 328 329 330 330 330 330 330 330 330 330 331 331 333 333 333 333 333 332 332 331 331 331 331 330 330 330 330 329
329 331 332 331 331 331 331 332 331 331 332 331 330 329 328 328 329 330 331 330 330 330 330 331 331 332 332 333 333 333 333 333 332 331 331 331 331 330 330 330 330 329
331 331 332 331 331 331 330 331 331 332 332 332 331 331 329 328 329 330 331 331 330 330 331 330 331 331 332 333 333 333 333 333 333 332 331 331 330 330 330 330 329 329
327 328 329 331 331 331 331 331 332 332 333 332 332 332 331 330 329 329 329 330 330 330 331 331 331 331 331 332 332 333 333 333 333 333 332 331 331 331 331 330 329 329
329 330 330 331 330 331 332 333 333 333 333 333 333 332 332 331 330 329 328 329 330 330 331 331 331 331 331 331 332 333 333 333 333 333 332 332 332 332 332 331 330 329
330 330 331 331 331 331 332 333 333 333 333 333 333 333 332 332 331 331 329 328 329 330 331 331 331 331 331 331 332 332 333 333 333 333 333 332 332 332 332 331 330 330
330 331 331 331 331 331 332 332 333 333 333 333 334 334 333 332 331 331 331 330 330 330 330 331 331 331 332 332 332 332 333 333 333 333 333 332 332 332 332 332 331 331
330 331 331 332 332 332 332 333 334 333 333 334 334 333 333 333 332 331 331 331 331 331 330 330 330 330 331 332 332 332 332 332 333 332 332 332 332 332 332 332 332 331
331 332 333 333 333 333 333 333 334 334 334 334 333 333 334 334 334 332 331 330 331 331 331 331 330 330 331 331 331 332 333 332 332 332 332 332 332 332 332 332 332 332
331 331 332 332 333 332 333 333 334 334 333 333 333 334 333 333 334 333 332 331 330 330 330 331 330 331 325 318 319 330 332 333 333 333 332 332 331 331 331 332 332 332
331 331 332 331 331 332 333 333 333 333 333 333 333 333 333 333 333 333 333 332 331 330 330 330 331 330 316 309 308 312 328 332 332 332 333 333 332 331 331 331 332 332
331 331 331 331 332 332 332 333 333 333 333 333 333 333 333 333 333 333 333 333 332 331 330 330 330 320 310 308 307 307 313 330 332 332 332 332 332 332 332 332 332 332
330 330 330 330 330 331 332 332 332 332 332 332 332 332 332 332 332 332 332 333 332 331 331 331 330 316 308 307 306 305 305 318 332 332 331 331 332 332 332 332 331 331
328 328 328 328 329 329 330 330 330 330 331 332 331 331 331 331 332 332 333 333 333 332 331 331 331 319 308 306 305 303 303 308 331 332 332 332 332 332 332 332 332 331
325 326 327 328 328 328 328 329 329 329 330 330 330 330 330 330 330 330 331 331 330 330 329 329 331 315 309 305 303 302 302 304 327 331 332 332 333 333 333 333 333 332
323 323 324 325 326 326 327 327 328 328 328 329 328 329 329 329 329 329 328 328 328 328 328 328 329 312 307 305 304 303 301 311 323 329 331 332 332 332 333 333 333 333
321 322 322 322 323 324 324 325 325 325 325 325 325 325 325 326 327 327 328 328 327 327 326 327 328 316 307 305 304 302 302 315 322 327 330 331 332 333 333 333 333 333
319 321 321 321 321 321 322 323 324 324 324 322 323 322 322 324 325 325 325 325 326 326 327 326 327 321 309 307 305 302 308 318 322 326 328 330 331 333 333 333 333 324
315 318 320 320 320 321 321 321 322 322 323 323 323 323 322 323 322 323 324 325 325 326 321 325 328 323 310 307 303 301 307 323 325 327 327 329 330 331 332 332 333 326
314 316 317 319 320 321 321 322 322 322 322 323 323 324 323 323 322 323 323 324 325 325 326 326 328 329 320 305 304 302 303 321 327 327 327 328 330 330 330 330 331 332
Wind_Speed
16 14 15 14 14 13 14 14 12 12 12 11 11 12 12 10 10 12 12 10 11 10 10 10 10 10 9 10 10 9 9 10 10 9 10 10 9 10 9 10 9 9
16 15 13 12 11 10 10 12 13 13 12 11 11 9 8 9 11 10 11 12 11 11 10 10 10 11 11 10 10 10 9 9 10 8 10 11 10 10 10 11 10 8
16 14 14 13 12 13 13 12 12 12 12 12 9 7 8 9 10 10 10 11 11 11 11 11 11 11 11 11 11 10 10 11 11 9 10 11 9 10 10 9 9 10
14 15 14 14 13 13 11 9 9 9 8 8 11 11 9 7 8 10 10 11 11 11 11 11 12 11 11 11 11 10 11 11 10 10 11 9 10 10 10 9 9 9
20 18 16 14 13 13 11 10 10 9 9 10 8 7 8 9 9 10 10 11 11 11 10 11 11 11 11 11 11 10 10 10 10 10 10 11 9 10 9 9 9 9
12 14 14 14 14 13 12 12 11 10 10 8 9 7 9 9 9 10 11 11 11 11 11 11 11 11 11 11 10 10 10 10 10 11 12 11 9 9 8 9 10 10
3 2 4 5 6 7 9 9 8 8 8 7 4 7 7 9 10 11 11 11 11 11 12 12 12 11 10 10 11 11 10 11 10 12 12 11 10 11 10 10 10 10
9 7 7 8 10 7 4 3 4 5 5 5 7 7 7 10 11 10 9 10 10 12 11 11 11 12 12 11 12 12 12 10 11 12 12 12 10 11 10 9 10 10
1 1 7 13 11 5 5 8 5 3 4 7 8 7 7 9 10 10 9 9 10 10 11 11 12 12 11 12 13 14 13 12 11 12 13 12 12 12 11 10 10 11
15 17 15 11 13 13 16 16 13 8 7 8 9 7 8 9 9 10 9 9 10 11 11 12 12 11 11 12 14 14 14 13 12 12 12 13 13 12 12 11 12 11
13 12 14 14 14 14 17 16 15 14 11 11 10 9 9 8 9 8 9 9 10 12 12 12 12 12 12 12 11 11 12 13 13 12 12 12 12 12 11 12 12 13
11 12 14 16 15 14 15 13 12 13 13 10 10 10 9 9 9 9 9 11 11 12 12 12 11 10 11 12 11 10 11 12 12 13 13 12 12 12 12 11 12 12
11 12 13 13 13 14 13 12 12 11 11 12 11 10 10 10 9 10 9 11 12 12 12 11 10 10 11 11 11 11 11 12 12 13 13 11 11 11 11 11 11 11
12 12 12 12 11 10 10 11 11 10 11 10 10 11 11 11 11 11 10 10 11 11 11 10 10 10 11 11 11 11 11 12 12 12 12 12 11 11 11 11 11 11
10 9 8 9 9 8 9 10 10 10 9 9 10 10 9 10 10 10 10 10 10 10 10 9 10 11 10 11 11 12 12 12 12 12 12 11 11 11 10 11 11 10
9 8 8 9 9 10 9 9 9 9 9 10 11 10 9 9 9 9 9 10 10 10 10 9 10 9 12 17 14 11 11 11 10 11 12 11 10 11 11 11 11 10
9 10 10 10 10 10 9 10 10 9 10 11 11 11 11 10 10 10 10 10 11 10 11 10 10 10 15 15 16 17 13 11 11 11 11 11 11 11 11 11 10 11
9 10 10 11 11 12 12 10 10 10 11 11 11 11 10 9 10 11 11 11 10 11 11 11 10 13 15 15 16 18 16 12 10 10 10 11 11 12 10 9 10 10
8 9 10 10 11 11 10 10 10 11 12 12 12 11 9 11 12 13 13 11 11 11 11 11 10 12 14 15 14 15 17 15 10 10 10 11 11 11 11 10 9 9
8 9 10 10 9 8 8 9 11 13 13 12 11 11 12 13 14 16 14 14 13 13 12 11 11 12 13 14 15 14 15 14 11 11 10 11 12 12 11 11 11 10
7 8 9 10 10 10 10 10 12 11 12 11 11 12 13 14 14 13 12 11 11 12 12 12 12 13 11 13 13 15 16 13 12 11 11 11 11 12 12 11 11 10
7 7 7 7 7 7 8 10 11 11 12 10 9 9 9 10 10 9 10 10 10 10 11 13 13 18 16 16 17 18 19 12 12 13 13 12 11 11 11 10 9 10
6 8 8 7 7 8 9 9 9 10 9 7 9 9 10 11 12 13 12 11 11 11 11 12 10 14 18 20 22 23 16 10 11 12 12 13 12 11 11 10 10 10
7 8 8 8 8 9 10 10 10 9 8 7 9 10 11 13 12 10 9 10 12 12 13 13 13 14 20 21 23 24 20 13 12 12 14 13 12 12 10 9 11 15
6 6 7 7 8 10 10 10 10 10 9 8 9 9 10 10 9 9 8 8 9 11 13 14 13 13 19 20 20 20 18 12 11 11 11 12 11 11 9 8 9 11
6 6 7 7 8 9 9 10 9 8 8 9 10 10 11 9 9 9 10 9 9 10 11 13 13 11 11 18 20 21 22 14 10 9 10 12 11 11 9 8 10 10
Wind_Direction
208 207 203 199 202 201 197 195 196 204 208 205 205 202 198 192 182 191 193 193 197 194 189 187 185 185 186 185 186 187 189 192 191 185 188 192 201 200 206 209 208 211
208 211 212 208 203 200 201 199 196 199 205 209 212 203 193 181 193 190 190 195 196 196 188 188 188 188 186 186 185 187 191 190 195 185 188 193 199 199 210 208 210 210
205 209 211 207 202 201 200 199 199 200 201 205 205 202 198 192 188 190 192 194 198 197 192 191 191 192 189 189 186 190 192 193 197 188 191 197 194 200 207 204 208 208
206 209 209 209 204 204 203 200 202 200 200 195 202 204 199 189 187 191 194 193 199 200 197 191 193 192 193 190 187 193 195 197 196 184 194 197 198 200 201 198 204 205
200 203 207 208 207 204 196 201 202 202 202 208 204 197 196 195 193 194 194 198 199 200 197 198 194 194 192 192 190 194 195 199 193 188 195 201 198 197 200 194 199 202
212 209 207 206 204 199 198 199 202 201 207 206 206 197 206 201 198 200 199 199 200 200 198 198 197 197 193 194 192 200 195 199 195 192 199 202 198 196 197 197 200 203
176 238 271 267 246 220 206 199 196 201 208 213 193 207 204 206 208 209 205 204 202 202 202 199 198 198 196 194 198 201 202 200 195 196 200 206 198 198 197 197 201 205
127 111 78 37 6 346 309 243 208 200 205 203 212 215 204 214 217 214 209 205 207 210 210 207 203 202 196 193 199 202 205 201 200 198 203 205 197 202 195 196 199 206
70 141 163 165 166 175 294 313 296 222 203 213 221 217 211 217 220 218 214 209 212 216 215 214 209 206 203 200 201 200 202 204 202 200 202 202 202 203 196 191 198 206
187 188 192 193 185 186 192 196 205 210 204 213 218 218 217 219 220 219 216 212 215 217 219 219 216 211 207 210 209 202 201 204 204 205 205 205 206 202 198 193 198 203
193 195 194 196 195 190 195 196 195 194 195 203 205 213 218 216 218 214 216 215 217 218 220 221 220 214 212 214 216 214 207 204 205 205 207 208 207 205 201 199 199 205
193 191 193 196 198 196 195 199 203 199 194 193 196 209 212 215 216 212 212 217 221 224 224 225 222 218 218 219 216 213 216 214 208 206 208 207 207 206 204 201 203 204
200 196 195 197 197 198 194 195 203 206 201 195 191 204 209 213 215 215 215 217 221 223 225 224 222 220 223 222 219 215 214 217 219 215 209 207 208 206 206 205 204 203
205 204 202 200 201 202 200 197 198 202 207 204 191 199 207 210 213 215 218 219 225 225 225 221 218 218 220 221 219 217 214 216 218 221 220 210 203 204 205 208 207 205
199 201 205 204 201 201 202 200 197 203 207 206 204 207 207 211 213 215 218 224 229 230 231 226 223 221 217 214 216 218 217 218 217 218 221 222 209 199 201 206 211 209
195 197 201 203 200 198 203 202 196 196 199 207 212 209 208 210 215 217 220 225 229 231 230 229 229 228 222 212 208 213 216 219 218 218 216 218 218 208 202 205 210 208
192 201 201 207 209 201 196 198 196 193 198 205 209 208 207 209 212 219 222 224 226 229 231 231 232 232 228 216 213 213 213 216 217 217 213 215 218 215 204 202 208 211
194 194 201 203 201 200 191 189 190 192 199 205 207 206 206 207 212 219 225 225 227 229 232 233 236 237 230 222 217 219 214 216 216 215 212 214 217 218 214 202 206 209
196 197 200 202 201 195 185 180 187 195 199 202 205 203 201 204 210 212 216 217 219 225 232 234 239 236 232 232 223 220 219 217 221 217 214 217 217 218 217 208 204 210
207 204 207 211 208 198 188 187 192 200 200 200 200 201 207 211 213 212 209 205 205 206 213 217 223 228 226 228 230 223 218 215 228 221 220 219 217 217 218 213 205 209
216 212 214 209 202 198 194 200 205 209 207 203 198 199 202 209 213 215 212 207 202 204 206 211 211 200 203 215 216 218 214 210 225 225 224 222 222 222 222 217 211 211
214 220 223 220 208 199 196 201 206 206 207 202 202 209 213 213 219 214 209 209 210 208 213 220 215 191 191 200 201 217 205 201 217 223 225 226 224 225 224 222 218 215
217 215 219 219 209 201 204 205 205 208 207 192 198 203 205 209 209 206 200 194 197 204 211 226 234 202 189 195 196 200 192 197 208 217 222 224 228 224 221 219 216 215
218 214 215 211 203 207 207 208 208 210 205 192 201 200 205 208 205 202 192 181 180 191 199 213 226 213 203 205 200 193 188 191 201 208 216 219 227 226 220 218 217 214
227 224 220 207 204 209 207 208 209 210 206 198 212 215 218 212 205 204 203 191 185 192 204 209 224 218 204 209 200 195 194 208 205 210 212 217 220 227 218 218 222 217
243 235 227 215 209 208 207 209 205 202 200 199 208 213 220 216 206 202 205 207 192 189 195 208 224 231 206 202 199 197 195 199 203 201 216 224 223 219 214 211 222 226